Volver al catálogo

STARLINK-36717

ActivoComunicacionesSSO
NORAD 67743·PAYLOAD·🇺🇸 United States

Lanzado Feb 11, 2026 desde Vandenberg Space Force Base

Loading…

Próximos Pases (próximas 24 horas)

TLE

ActualizadoSource: CelesTrak SupGP

Época: Sep 15, 2026, 02:46 UTC

1 67743C 26026Y   26258.11576389  .00044411  00000+0  13790-2 0  2589
2 67743  97.2845 310.0864 0001169  88.2043 119.0753 15.33408356    13

Sigue STARLINK-36717 en tiempo real con AllMySat

Download on the App Store